Location: Jalan Sepang
(2.8072°N, 101.8021°E)
Time: 05:07:45
(UTC+00:00)

Tiangong - Pass Details

Date: 15 May 2026
Orbit: 381 x 392 km, 41.5° (Epoch: 7 June)

Event Time Altitude Azimuth Distance (km) Brightness Sun altitude
Rises 12:26:21 0° 225° (SW) 2,287 2.1 -17.2°
Reaches altitude 10° 12:28:26 10° 223° (SW) 1,431 1.0 -17.7°
Maximum altitude 12:31:40 81° 138° (SE) 402 -2.3 -18.5°
Enters shadow 12:32:06 64° 65° (ENE) 441 -2.1 -18.6°
